Location: DARK SKY Beskydy - Park tmavé oblohy, www.darkskybeskydy.cz
(49.4926°N, 18.5016°E)
Time: 04:30:50
(UTC+02:00)

A-11 Canister half - Pass Details

Date: 25 February 2024
Orbit: 1513 x 1686 km, 47.2° (Epoch: 24 April)

Event Time Altitude Azimuth Distance (km) Brightness Sun altitude
Rises 09:45:13 0° 285° (WNW) 4,840 11.2 24.4°
Reaches altitude 10° 09:50:37 10° 262° (W) 3,809 10.9 24.9°
Maximum altitude 09:54:35 13° 237° (WSW) 3,515 11.0 25.3°
Drops below altitude 10° 09:58:32 10° 212° (SSW) 3,744 11.5 25.6°
Sets 10:03:47 0° 187° (S) 4,688 12.3 26.1°
